Time,TemperatureF,DewpointF,PressureIn,WindDirection,WindDirectionDegrees,WindSpeedMPH,WindSpeedGustMPH,Humidity,HourlyPrecipIn,Conditions,Clouds,dailyrainin,SoftwareType,DateUTC
2013-06-19 00:02:00,67.0,67.0,29.78,SW,225,0.0,1.0,99,0.00,,,0.00,,2013-06-18 14:02:00,
2013-06-19 00:11:00,66.0,66.0,29.77,West,278,0.0,1.0,99,0.00,,,0.00,,2013-06-18 14:11:00,
2013-06-19 00:22:00,66.0,66.0,29.78,North,0,0.0,0.0,99,0.00,,,0.00,,2013-06-18 14:22:00,
2013-06-19 00:33:00,66.0,66.0,29.78,North,0,0.0,0.0,99,0.00,,,0.00,,2013-06-18 14:33:00,
2013-06-19 00:43:00,66.0,66.0,29.78,West,270,0.0,1.0,99,0.00,,,0.00,,2013-06-18 14:43:00,
2013-06-19 00:52:00,66.0,66.0,29.78,West,270,0.0,1.0,99,0.00,,,0.00,,2013-06-18 14:52:00,
2013-06-19 01:01:00,66.0,66.0,29.78,West,270,0.0,1.0,99,0.00,,,0.00,,2013-06-18 15:01:00,
2013-06-19 01:11:00,66.0,66.0,29.78,North,0,0.0,0.0,99,0.00,,,0.00,,2013-06-18 15:11:00,
2013-06-19 01:22:00,67.0,67.0,29.78,North,0,0.0,0.0,99,0.00,,,0.00,,2013-06-18 15:22:00,
2013-06-19 01:33:00,66.0,66.0,29.78,North,0,0.0,0.0,99,0.00,,,0.00,,2013-06-18 15:33:00,
2013-06-19 01:42:00,66.0,66.0,29.77,North,0,0.0,0.0,99,0.00,,,0.00,,2013-06-18 15:42:00,
2013-06-19 01:52:00,66.0,66.0,29.77,North,0,0.0,0.0,99,0.00,,,0.00,,2013-06-18 15:52:00,
2013-06-19 02:01:00,66.0,66.0,29.77,North,0,0.0,0.0,99,0.00,,,0.00,,2013-06-18 16:01:00,
2013-06-19 02:11:00,66.0,66.0,29.77,North,0,0.0,0.0,99,0.00,,,0.00,,2013-06-18 16:11:00,
2013-06-19 02:22:00,65.0,65.0,29.76,West,270,0.0,1.0,99,0.00,,,0.00,,2013-06-18 16:22:00,
2013-06-19 02:33:00,65.0,65.0,29.76,West,270,0.0,1.0,99,0.00,,,0.00,,2013-06-18 16:33:00,
2013-06-19 02:43:00,65.0,65.0,29.76,North,0,0.0,0.0,99,0.00,,,0.00,,2013-06-18 16:43:00,
2013-06-19 02:53:00,65.0,65.0,29.76,North,0,0.0,0.0,99,0.00,,,0.00,,2013-06-18 16:53:00,
2013-06-19 03:01:00,65.0,65.0,29.75,West,270,0.0,1.0,99,0.00,,,0.00,,2013-06-18 17:01:00,
2013-06-19 03:11:00,65.0,65.0,29.75,West,270,0.0,1.0,99,0.00,,,0.00,,2013-06-18 17:11:00,
2013-06-19 03:22:00,65.0,65.0,29.75,West,270,0.0,1.0,99,0.00,,,0.00,,2013-06-18 17:22:00,
2013-06-19 03:33:00,65.0,65.0,29.76,North,0,0.0,0.0,99,0.00,,,0.00,,2013-06-18 17:33:00,
2013-06-19 03:43:00,65.0,65.0,29.76,North,0,0.0,0.0,99,0.00,,,0.00,,2013-06-18 17:43:00,
2013-06-19 03:53:00,65.0,65.0,29.76,North,0,0.0,0.0,99,0.00,,,0.00,,2013-06-18 17:53:00,
2013-06-19 04:01:00,65.0,65.0,29.76,North,0,0.0,0.0,99,0.00,,,0.00,,2013-06-18 18:01:00,
2013-06-19 04:11:00,64.0,64.0,29.76,North,0,0.0,0.0,99,0.00,,,0.00,,2013-06-18 18:11:00,
2013-06-19 04:22:00,64.0,64.0,29.76,North,0,0.0,0.0,99,0.00,,,0.00,,2013-06-18 18:22:00,
2013-06-19 04:33:00,64.0,64.0,29.76,North,0,0.0,0.0,99,0.00,,,0.00,,2013-06-18 18:33:00,
2013-06-19 04:42:00,64.0,64.0,29.76,North,0,0.0,0.0,99,0.00,,,0.00,,2013-06-18 18:42:00,
2013-06-19 04:53:00,64.0,64.0,29.76,North,0,0.0,0.0,99,0.00,,,0.00,,2013-06-18 18:53:00,
2013-06-19 05:01:00,64.0,64.0,29.76,North,0,0.0,0.0,99,0.00,,,0.00,,2013-06-18 19:01:00,
2013-06-19 05:11:00,64.0,64.0,29.76,North,0,0.0,0.0,99,0.00,,,0.00,,2013-06-18 19:11:00,
2013-06-19 05:22:00,64.0,64.0,29.76,North,0,0.0,0.0,99,0.00,,,0.00,,2013-06-18 19:22:00,
2013-06-19 05:33:00,64.0,64.0,29.76,NW,314,0.0,2.0,99,0.00,,,0.00,,2013-06-18 19:33:00,
2013-06-19 05:42:00,64.0,64.0,29.77,WNW,292,0.0,1.0,99,0.00,,,0.00,,2013-06-18 19:42:00,
2013-06-19 05:52:00,64.0,64.0,29.77,WNW,292,0.0,1.0,99,0.00,,,0.00,,2013-06-18 19:52:00,
2013-06-19 06:01:00,64.0,64.0,29.77,WNW,292,0.0,1.0,99,0.00,,,0.00,,2013-06-18 20:01:00,
2013-06-19 06:11:00,63.0,63.0,29.77,North,0,0.0,0.0,99,0.00,,,0.00,,2013-06-18 20:11:00,
2013-06-19 06:22:00,63.0,63.0,29.77,West,276,0.0,2.0,99,0.00,,,0.00,,2013-06-18 20:22:00,
2013-06-19 06:33:00,63.0,63.0,29.77,North,0,0.0,0.0,99,0.00,,,0.00,,2013-06-18 20:33:00,
2013-06-19 06:43:00,63.0,63.0,29.77,North,0,0.0,0.0,99,0.00,,,0.00,,2013-06-18 20:43:00,
2013-06-19 06:52:00,63.0,63.0,29.77,North,0,0.0,0.0,99,0.00,,,0.00,,2013-06-18 20:52:00,
2013-06-19 07:01:00,63.0,63.0,29.78,North,0,0.0,0.0,99,0.00,,,0.00,,2013-06-18 21:01:00,
2013-06-19 07:11:00,64.0,64.0,29.78,West,270,0.0,2.0,99,0.00,,,0.00,,2013-06-18 21:11:00,
2013-06-19 07:22:00,64.0,64.0,29.78,South,181,0.0,1.0,99,0.00,,,0.00,,2013-06-18 21:22:00,
2013-06-19 07:33:00,64.0,64.0,29.78,South,181,0.0,1.0,99,0.00,,,0.00,,2013-06-18 21:33:00,
2013-06-19 07:43:00,64.0,64.0,29.79,North,0,0.0,0.0,99,0.00,,,0.00,,2013-06-18 21:43:00,
2013-06-19 07:52:00,65.0,65.0,29.79,West,270,0.0,1.0,99,0.00,,,0.00,,2013-06-18 21:52:00,
2013-06-19 08:01:00,69.0,69.0,29.80,WNW,291,0.0,2.0,99,0.00,,,0.00,,2013-06-18 22:01:00,
2013-06-19 08:11:00,69.0,69.0,29.80,WNW,291,0.0,2.0,99,0.00,,,0.00,,2013-06-18 22:11:00,
2013-06-19 08:22:00,69.0,69.0,29.80,WNW,291,0.0,2.0,99,0.00,,,0.00,,2013-06-18 22:22:00,
2013-06-19 08:34:00,69.0,69.0,29.80,WNW,291,0.0,2.0,99,0.00,,,0.00,,2013-06-18 22:34:00,
2013-06-19 08:42:00,69.0,69.0,29.80,WNW,291,0.0,2.0,99,0.00,,,0.00,,2013-06-18 22:42:00,
2013-06-19 09:11:00,82.0,74.0,29.81,SW,225,0.0,2.0,78,0.00,,,0.00,,2013-06-18 23:11:00,
2013-06-19 09:23:00,82.0,74.0,29.81,SW,225,0.0,2.0,78,0.00,,,0.00,,2013-06-18 23:23:00,
2013-06-19 09:35:00,84.0,71.0,29.82,SW,227,2.0,7.0,65,0.00,,,0.00,,2013-06-18 23:35:00,
2013-06-19 09:44:00,84.0,71.0,29.82,SW,227,2.0,7.0,65,0.00,,,0.00,,2013-06-18 23:44:00,
2013-06-19 09:53:00,84.0,71.0,29.82,SW,227,2.0,7.0,65,0.00,,,0.00,,2013-06-18 23:53:00,
2013-06-19 10:01:00,85.0,69.0,29.82,SW,230,2.0,3.0,59,0.00,,,0.00,,2013-06-19 00:01:00,
2013-06-19 10:11:00,86.0,69.0,29.82,SW,229,1.0,3.0,57,0.00,,,0.00,,2013-06-19 00:11:00,
2013-06-19 10:22:00,86.0,69.0,29.81,SW,229,2.0,4.0,57,0.00,,,0.00,,2013-06-19 00:22:00,
2013-06-19 10:33:00,85.0,69.0,29.81,SW,227,2.0,4.0,59,0.00,,,0.00,,2013-06-19 00:33:00,
2013-06-19 10:43:00,85.0,69.0,29.81,SW,227,2.0,4.0,59,0.00,,,0.00,,2013-06-19 00:43:00,
2013-06-19 10:53:00,85.0,69.0,29.81,SW,227,2.0,4.0,59,0.00,,,0.00,,2013-06-19 00:53:00,
2013-06-19 11:01:00,87.0,71.0,29.80,WSW,242,0.0,4.0,60,0.00,,,0.00,,2013-06-19 01:01:00,
2013-06-19 11:11:00,88.0,72.0,29.80,SW,236,2.0,4.0,59,0.00,,,0.00,,2013-06-19 01:11:00,
2013-06-19 11:22:00,88.0,72.0,29.80,WSW,240,2.0,6.0,59,0.00,,,0.00,,2013-06-19 01:22:00,
2013-06-19 11:32:00,88.0,72.0,29.80,WSW,240,2.0,6.0,59,0.00,,,0.00,,2013-06-19 01:32:00,
2013-06-19 11:42:00,88.0,72.0,29.80,WSW,240,2.0,6.0,59,0.00,,,0.00,,2013-06-19 01:42:00,
2013-06-19 11:53:00,86.0,72.0,29.79,SW,224,1.0,4.0,63,0.00,,,0.00,,2013-06-19 01:53:00,
2013-06-19 12:01:00,86.0,72.0,29.79,SW,224,1.0,4.0,63,0.00,,,0.00,,2013-06-19 02:01:00,
2013-06-19 12:11:00,86.0,72.0,29.79,SW,224,1.0,4.0,63,0.00,,,0.00,,2013-06-19 02:11:00,
2013-06-19 12:21:00,86.0,72.0,29.79,SW,224,1.0,4.0,63,0.00,,,0.00,,2013-06-19 02:21:00,
2013-06-19 12:32:00,89.0,71.0,29.79,WSW,238,2.0,4.0,55,0.00,,,0.00,,2013-06-19 02:32:00,
2013-06-19 12:42:00,90.0,72.0,29.76,SSE,163,2.0,4.0,55,0.00,,,0.00,,2013-06-19 02:42:00,
2013-06-19 12:52:00,88.0,73.0,29.76,SSW,201,2.0,5.0,61,0.00,,,0.00,,2013-06-19 02:52:00,
2013-06-19 13:01:00,84.0,73.0,29.76,SSW,213,0.0,5.0,69,0.00,,,0.00,,2013-06-19 03:01:00,
2013-06-19 13:11:00,84.0,73.0,29.76,SSW,213,0.0,5.0,69,0.00,,,0.00,,2013-06-19 03:11:00,
2013-06-19 13:21:00,85.0,73.0,29.75,South,179,1.0,9.0,67,0.00,,,0.00,,2013-06-19 03:21:00,
2013-06-19 13:32:00,85.0,73.0,29.75,South,179,1.0,9.0,67,0.00,,,0.00,,2013-06-19 03:32:00,
2013-06-19 13:42:00,85.0,73.0,29.75,South,179,1.0,9.0,67,0.00,,,0.00,,2013-06-19 03:42:00,
2013-06-19 13:52:00,85.0,73.0,29.75,South,179,1.0,9.0,67,0.00,,,0.00,,2013-06-19 03:52:00,
2013-06-19 14:01:00,87.0,74.0,29.74,SSW,199,2.0,8.0,65,0.00,,,0.00,,2013-06-19 04:01:00,
2013-06-19 14:11:00,87.0,74.0,29.74,SSW,199,2.0,8.0,65,0.00,,,0.00,,2013-06-19 04:11:00,
2013-06-19 14:22:00,87.0,74.0,29.74,SSW,199,2.0,8.0,65,0.00,,,0.00,,2013-06-19 04:22:00,
2013-06-19 14:32:00,87.0,74.0,29.74,SSW,199,2.0,8.0,65,0.00,,,0.00,,2013-06-19 04:32:00,
2013-06-19 14:42:00,87.0,74.0,29.74,SSW,199,2.0,8.0,65,0.00,,,0.00,,2013-06-19 04:42:00,
2013-06-19 15:23:00,81.0,72.0,29.75,SW,217,1.0,7.0,74,0.00,,,0.00,,2013-06-19 05:23:00,
2013-06-19 15:32:00,83.0,72.0,29.74,SSW,193,1.0,7.0,70,0.00,,,0.00,,2013-06-19 05:32:00,
2013-06-19 15:43:00,85.0,73.0,29.74,SW,223,1.0,4.0,67,0.00,,,0.00,,2013-06-19 05:43:00,
2013-06-19 15:52:00,83.0,71.0,29.74,SSE,166,1.0,7.0,68,0.00,,,0.00,,2013-06-19 05:52:00,
2013-06-19 16:01:00,81.0,72.0,29.73,SSE,147,1.0,7.0,75,0.00,,,0.00,,2013-06-19 06:01:00,
2013-06-19 16:11:00,81.0,72.0,29.73,SSE,147,1.0,7.0,75,0.00,,,0.00,,2013-06-19 06:11:00,
2013-06-19 16:21:00,80.0,74.0,29.74,SSE,154,0.0,6.0,81,0.00,,,0.00,,2013-06-19 06:21:00,
2013-06-19 16:33:00,80.0,73.0,29.74,SSE,166,0.0,4.0,80,0.00,,,0.00,,2013-06-19 06:33:00,
2013-06-19 16:42:00,80.0,73.0,29.74,SSE,166,0.0,4.0,80,0.00,,,0.00,,2013-06-19 06:42:00,
2013-06-19 16:52:00,78.0,72.0,29.74,SW,225,2.0,4.0,81,0.00,,,0.00,,2013-06-19 06:52:00,
2013-06-19 17:01:00,78.0,72.0,29.74,SW,225,2.0,4.0,81,0.00,,,0.00,,2013-06-19 07:01:00,
2013-06-19 17:11:00,77.0,73.0,29.74,SW,228,0.0,3.0,87,0.00,,,0.00,,2013-06-19 07:11:00,
2013-06-19 17:22:00,77.0,73.0,29.74,SW,228,0.0,3.0,87,0.00,,,0.00,,2013-06-19 07:22:00,
2013-06-19 17:33:00,77.0,73.0,29.74,SW,228,0.0,3.0,87,0.00,,,0.00,,2013-06-19 07:33:00,
2013-06-19 17:43:00,75.0,73.0,29.75,SW,225,1.0,3.0,94,0.00,,,0.00,,2013-06-19 07:43:00,
2013-06-19 17:53:00,75.0,73.0,29.75,SW,225,1.0,3.0,94,0.00,,,0.00,,2013-06-19 07:53:00,
2013-06-19 18:02:00,74.0,73.0,29.76,SW,225,0.0,2.0,97,0.00,,,0.00,,2013-06-19 08:02:00,
2013-06-19 18:11:00,74.0,74.0,29.76,SW,225,0.0,2.0,99,0.00,,,0.00,,2013-06-19 08:11:00,
2013-06-19 18:22:00,73.0,73.0,29.77,SW,225,0.0,2.0,99,0.00,,,0.00,,2013-06-19 08:22:00,
2013-06-19 18:33:00,73.0,73.0,29.77,SW,225,0.0,2.0,99,0.00,,,0.00,,2013-06-19 08:33:00,
2013-06-19 18:42:00,72.0,72.0,29.78,SW,225,0.0,2.0,99,0.00,,,0.00,,2013-06-19 08:42:00,
2013-06-19 18:53:00,72.0,72.0,29.78,SW,225,0.0,2.0,99,0.00,,,0.00,,2013-06-19 08:53:00,
2013-06-19 19:02:00,72.0,72.0,29.78,North,0,0.0,0.0,99,0.00,,,0.00,,2013-06-19 09:02:00,
2013-06-19 19:11:00,72.0,72.0,29.78,North,0,0.0,0.0,99,0.00,,,0.00,,2013-06-19 09:11:00,
2013-06-19 19:22:00,72.0,72.0,29.78,North,0,0.0,0.0,99,0.00,,,0.00,,2013-06-19 09:22:00,
2013-06-19 19:34:00,72.0,72.0,29.78,North,0,0.0,0.0,99,0.00,,,0.00,,2013-06-19 09:34:00,
2013-06-19 19:43:00,72.0,72.0,29.80,SW,229,0.0,2.0,99,0.00,,,0.00,,2013-06-19 09:43:00,
2013-06-19 19:53:00,72.0,72.0,29.80,SW,229,0.0,2.0,99,0.00,,,0.00,,2013-06-19 09:53:00,
2013-06-19 20:01:00,72.0,72.0,29.80,SW,225,0.0,2.0,99,0.00,,,0.00,,2013-06-19 10:01:00,
2013-06-19 20:11:00,72.0,72.0,29.80,SW,225,0.0,2.0,99,0.00,,,0.00,,2013-06-19 10:11:00,
2013-06-19 20:22:00,71.0,71.0,29.80,SW,225,0.0,2.0,99,0.00,,,0.00,,2013-06-19 10:22:00,
2013-06-19 20:33:00,72.0,72.0,29.81,SW,225,0.0,2.0,99,0.00,,,0.00,,2013-06-19 10:33:00,
2013-06-19 20:42:00,72.0,72.0,29.81,SW,225,0.0,2.0,99,0.00,,,0.00,,2013-06-19 10:42:00,
2013-06-19 20:52:00,71.0,71.0,29.81,SW,225,0.0,2.0,99,0.00,,,0.00,,2013-06-19 10:52:00,
2013-06-19 21:02:00,71.0,71.0,29.81,SW,225,0.0,2.0,99,0.00,,,0.00,,2013-06-19 11:02:00,
2013-06-19 21:11:00,71.0,71.0,29.81,SW,225,0.0,2.0,99,0.00,,,0.00,,2013-06-19 11:11:00,
2013-06-19 21:22:00,71.0,71.0,29.82,SW,227,1.0,2.0,99,0.00,,,0.00,,2013-06-19 11:22:00,
2013-06-19 21:32:00,71.0,71.0,29.82,SW,229,1.0,2.0,99,0.00,,,0.00,,2013-06-19 11:32:00,
2013-06-19 21:42:00,71.0,71.0,29.82,SW,225,1.0,2.0,99,0.00,,,0.00,,2013-06-19 11:42:00,
2013-06-19 21:54:00,71.0,71.0,29.82,SW,225,1.0,2.0,99,0.00,,,0.00,,2013-06-19 11:54:00,
2013-06-19 22:01:00,72.0,72.0,29.82,WSW,242,1.0,4.0,99,0.00,,,0.00,,2013-06-19 12:01:00,
2013-06-19 22:11:00,71.0,71.0,29.82,SW,232,0.0,3.0,99,0.00,,,0.00,,2013-06-19 12:11:00,
2013-06-19 22:22:00,71.0,71.0,29.83,SW,225,1.0,2.0,99,0.00,,,0.00,,2013-06-19 12:22:00,
2013-06-19 22:34:00,71.0,71.0,29.83,SW,225,1.0,2.0,99,0.00,,,0.00,,2013-06-19 12:34:00,
2013-06-19 22:44:00,71.0,71.0,29.83,SW,225,1.0,2.0,99,0.00,,,0.00,,2013-06-19 12:44:00,
2013-06-19 22:52:00,71.0,71.0,29.83,SW,225,1.0,2.0,99,0.00,,,0.00,,2013-06-19 12:52:00,
2013-06-19 23:02:00,70.0,70.0,29.83,SW,225,0.0,2.0,99,0.00,,,0.00,,2013-06-19 13:02:00,
2013-06-19 23:11:00,70.0,70.0,29.82,SW,225,0.0,2.0,99,0.00,,,0.00,,2013-06-19 13:11:00,
2013-06-19 23:22:00,70.0,70.0,29.82,SW,225,0.0,2.0,99,0.00,,,0.00,,2013-06-19 13:22:00,
2013-06-19 23:33:00,70.0,70.0,29.82,SW,236,2.0,4.0,99,0.00,,,0.00,,2013-06-19 13:33:00,
2013-06-19 23:42:00,70.0,70.0,29.82,SW,225,0.0,2.0,99,0.00,,,0.00,,2013-06-19 13:42:00,
2013-06-19 23:53:00,70.0,70.0,29.82,SW,225,0.0,2.0,99,0.00,,,0.00,,2013-06-19 13:53:00,